Flag for Mexico Weather past 2 weeks in Cancún, Quintana Roo, Mexico

Now
79 °F

Passing clouds.


Feels Like: 82 °F
Forecast: 79 / 88 °F
Wind: 6 mph from Northeast

Location: Cancun International Airport

Current Time: May 28, 2015 at 2:03:11 AM

Latest Report: May 28, 2015 at 12:45 AM


Visibility: 7 mi

Pressure: 30.01 "Hg

Humidity: 84%

Dew point: 73 °F

Location of CancúnLocation

Historic Weather in Cancún — Graph

°F

Cancún temperature yesterday

Maximum temperature yesterday: 88 °F (at 12:45 PM)
Minimum temperature yesterday: 79 °F (at 4:44 AM)
Average temperature yesterday: 83 °F

Past Weeks' High & Low Weather Summary

 TemperatureHumidityPressure
High88 °F (May 13, 12:40 PM)100% (May 20, 6:45 AM)30.11 "Hg (May 20, 6:45 AM)
Low72 °F (May 22, 4:47 AM)52% (May 21, 3:45 PM)29.95 "Hg (May 20, 3:46 PM)
Average83 °F76%30.02 "Hg
* Reported May 13 3:41 AM — May 28 12:45 AM, Cancún, Weather by CustomWeather, © 2015

Note: Actual official high and low records may vary slightly from our data, if they occured in-between our weather recording intervals... More about our weather records

Advertising

Cancún weather history for previous 24 hours

 ConditionsComfort  
Time TempWeatherWind HumidityBarometerVisibility
12:45 AM
Thu, May 28
79 °FPassing clouds.6 mph84%30.01 "Hg7 mi
11:46 PM
Wed, May 27
81 °FPassing clouds.6 mph79%30.02 "Hg7 mi
10:47 PM81 °FPassing clouds.6 mph79%30.02 "Hg7 mi
9:48 PM82 °FPassing clouds.6 mph74%30.02 "Hg7 mi
8:40 PM82 °FPassing clouds.8 mph79%30.01 "Hg7 mi
3:50 PM86 °FScattered clouds.12 mph66%29.99 "Hg7 mi
2:46 PM88 °FScattered clouds.16 mph62%30.00 "Hg7 mi
1:45 PM86 °FScattered clouds.10 mph66%30.03 "Hg7 mi
12:45 PM88 °FScattered clouds.7 mph62%30.04 "Hg7 mi
11:46 AM86 °FScattered clouds.10 mph66%30.05 "Hg7 mi
9:40 AM86 °FScattered clouds.9 mph70%30.05 "Hg7 mi
8:45 AM84 °FScattered clouds.5 mph74%30.04 "Hg7 mi
7:44 AM82 °FScattered clouds.6 mph79%30.04 "Hg7 mi
4:44 AM79 °FPassing clouds.3 mph89%29.99 "Hg7 mi
3:45 AM81 °FPassing clouds.7 mph84%30.00 "Hg7 mi
2:40 AM81 °FPassing clouds.6 mph84%29.99 "Hg7 mi
Weather by CustomWeather, © 2015

See weather overviewHow to use our weather pages